Kecskemet, Hungary

4:23 PM CEST on June 27, 2017 (GMT +0200)
Kecskemet

Weather History for LHKE - March, 2013

Change the Weather History Date:

Friday, March 29, 2013

  Actual Average (LHBP) Record (LHBP)
Temperature  
Mean Temperature 37 °F -  
Max Temperature 41 °F 56 °F 73 °F (2017)
Min Temperature 33 °F 34 °F 23 °F (2004)
Degree Days  
Heating Degree Days 28    
Moisture  
Dew Point 34 °F    
Average Humidity 93    
Maximum Humidity 100    
Minimum Humidity 81    
Precipitation  
Precipitation 0.00 in - - ()
Sea Level Pressure  
Sea Level Pressure 29.80 in    
Wind  
Wind Speed 8 mph ()    
Max Wind Speed 16 mph    
Max Gust Speed -    
Visibility 2.6 miles    
Events Fog , Rain    
Averages and records for this station are not official NWS values.
T = Trace of Precipitation, MM = Missing Value Source: Averaged Metar Reports

Daily Weather History Graph

Daily Weather History Graph

Search for Another Location

Airport or City:

Trip Planner

Search our weather history database for the weather conditions in past years. The results will help you decide how hot, cold, wet, or windy it might be!

Date:

Astronomy

Mar. 29, 2013 Rise Set
Actual Time 5:26 AM CET 6:06 PM CET
Civil Twilight 4:55 AM CET 6:36 PM CET
Nautical Twilight 4:19 AM CET 7:13 PM CET
Astronomical Twilight 3:41 AM CET 7:51 PM CET
Moon 8:58 PM CET (3/29) 6:12 AM CET (3/29)
Length of Visible Light 13h 41m
Length of Day
12h 39m
Waning Gibbous, 95% of the Moon is Illuminated
Mar 29
Waning Gibbous
Apr 3
Last Quarter
Apr 10
New
Apr 18
First Quarter
Apr 25
Full

Hourly Weather History & Observations

Time (CET) Temp. Windchill Dew Point Humidity Pressure Visibility Wind Dir Wind Speed Gust Speed Precip Events Conditions
12:15 AM 33.8 °F 26.5 °F 32.0 °F 93% 29.98 in 3.7 mi East 8.9 mph - N/A   Unknown
12:45 AM 33.8 °F 26.5 °F 32.0 °F 93% 29.98 in 3.7 mi East 8.9 mph - N/A   Unknown
1:15 AM 33.8 °F 27.9 °F 32.0 °F 93% 29.95 in 3.7 mi East 6.7 mph - N/A   Unknown
1:45 AM 35.6 °F 28.7 °F 32.0 °F 87% 29.95 in 3.7 mi East 8.9 mph - N/A   Unknown
2:15 AM 35.6 °F 27.7 °F 30.2 °F 81% 29.95 in 3.7 mi ESE 11.2 mph - N/A   Unknown
2:45 AM 35.6 °F 27.7 °F 30.2 °F 81% 29.92 in 3.7 mi ESE 11.2 mph - N/A   Unknown
3:15 AM 33.8 °F 26.5 °F 32.0 °F 93% 29.92 in 3.7 mi East 8.9 mph - N/A   Unknown
3:45 AM 33.8 °F 26.5 °F 30.2 °F 87% 29.92 in 3.7 mi East 8.9 mph - N/A   Unknown
4:15 AM 33.8 °F 26.5 °F 30.2 °F 87% 29.89 in 3.7 mi East 8.9 mph - N/A   Unknown
4:45 AM 33.8 °F 26.5 °F 30.2 °F 87% 29.89 in 3.7 mi East 8.9 mph - N/A   Unknown
5:15 AM 33.8 °F 26.5 °F 32.0 °F 93% 29.89 in 3.1 mi East 8.9 mph - N/A   Overcast
5:45 AM - - - N/A% - 5.0 mi SE 11.2 mph - N/A Rain Light Rain
6:15 AM 33.8 °F 25.4 °F 30.2 °F 87% 29.86 in 3.7 mi ESE 11.2 mph - N/A   Unknown
6:45 AM 35.6 °F 26.8 °F 30.2 °F 81% 29.83 in 5.0 mi ESE 13.4 mph - N/A   Unknown
7:15 AM 35.6 °F 26.0 °F 30.2 °F 81% 29.83 in 5.0 mi ESE 15.7 mph - N/A   Unknown
7:45 AM 35.6 °F 26.0 °F 30.2 °F 81% 29.83 in - SE 15.7 mph - N/A   Clear
8:15 AM 35.6 °F 28.7 °F 30.2 °F 81% 29.83 in - SE 8.9 mph - N/A   Clear
8:30 AM 35.6 °F 27.7 °F 32.0 °F 87% 29.83 in 5.0 mi SE 11.2 mph - N/A Rain Light Rain
8:45 AM - - - N/A% - 6.2 mi SE 11.2 mph - N/A   Overcast
9:15 AM 35.6 °F 26.0 °F 32.0 °F 87% 29.80 in 4.3 mi SE 15.7 mph - N/A Rain Light Rain
9:45 AM 37.4 °F 29.1 °F 33.8 °F 87% 29.80 in 4.3 mi SE 13.4 mph - N/A Rain Light Rain
10:15 AM 37.4 °F 29.1 °F 33.8 °F 87% 29.80 in 4.3 mi SE 13.4 mph - N/A Rain Light Rain
10:45 AM 39.2 °F 31.3 °F 35.6 °F 87% 29.77 in 4.3 mi SSE 13.4 mph - N/A Rain Light Rain
11:15 AM 39.2 °F 33.1 °F 35.6 °F 87% 29.77 in 3.7 mi SSE 8.9 mph - N/A Rain Light Rain
11:45 AM - - - N/A% - 6.2 mi SSE 11.2 mph - N/A   Overcast
12:15 PM 39.2 °F 32.2 °F 37.4 °F 93% 29.74 in 3.7 mi SSE 11.2 mph - N/A Rain Light Rain
12:45 PM 39.2 °F 32.2 °F 39.2 °F 100% 29.74 in 3.7 mi SSE 11.2 mph - N/A Rain Light Rain
1:15 PM 41.0 °F 33.6 °F 39.2 °F 93% 29.71 in 3.1 mi SSE 13.4 mph - N/A Rain Rain
1:45 PM 41.0 °F 34.4 °F 39.2 °F 93% 29.74 in 2.5 mi SSE 11.2 mph - N/A Rain Rain
1:52 PM 41.0 °F 34.4 °F 39.2 °F 93% 29.74 in 1.9 mi West 11.2 mph - N/A Rain Rain
2:15 PM 39.2 °F 32.2 °F 37.4 °F 93% 29.77 in 1.9 mi NW 11.2 mph - N/A Rain Rain
2:45 PM - - - N/A% - 3.7 mi WNW 11.2 mph - N/A Rain Light Rain
3:00 PM - - - N/A% - 5.0 mi WNW 11.2 mph - N/A   Overcast
3:15 PM 37.4 °F 33.9 °F 37.4 °F 100% 29.74 in 0.9 mi North 4.5 mph - N/A Rain Light Rain
3:45 PM 37.4 °F 33.9 °F 37.4 °F 100% 29.74 in 0.9 mi North 4.5 mph - N/A Rain Rain
4:00 PM - - - N/A% - 3.7 mi Variable 4.5 mph - N/A   Overcast
4:15 PM 37.4 °F - 37.4 °F 100% 29.74 in 0.9 mi ENE 2.2 mph - N/A Rain Light Rain
4:45 PM 37.4 °F - 37.4 °F 100% 29.74 in 0.7 mi NNE 2.2 mph - N/A Rain Light Rain
5:08 PM 35.6 °F - 35.6 °F 100% 29.74 in 0.5 mi NE 2.2 mph - N/A Fog , Rain Rain
5:15 PM 35.6 °F - 35.6 °F 100% 29.74 in 0.5 mi ENE 2.2 mph - N/A Fog , Rain Rain
5:45 PM - - - N/A% - 0.9 mi Variable 4.5 mph - N/A Rain Light Rain
6:15 PM 35.6 °F - 35.6 °F 100% 29.74 in 0.4 mi WNW 2.2 mph - N/A Fog , Rain Rain
6:35 PM 35.6 °F - 35.6 °F 100% 29.74 in 0.3 mi NW 2.2 mph - N/A Fog , Rain Rain
6:45 PM 35.6 °F - 35.6 °F 100% 29.74 in 0.3 mi Calm Calm - N/A Fog , Rain Rain
7:15 PM 35.6 °F - 35.6 °F 100% 29.74 in 0.3 mi Calm Calm - N/A Fog , Rain Rain
7:45 PM 35.6 °F - 35.6 °F 100% 29.74 in 0.2 mi Calm Calm - N/A Fog , Rain Rain
8:00 PM - - - N/A% - 0.9 mi Variable 4.5 mph - N/A Rain Light Rain
8:15 PM 35.6 °F - 35.6 °F 100% 29.74 in 0.2 mi NW 2.2 mph - N/A Fog , Rain Rain
8:45 PM - - - N/A% - 0.9 mi Variable 4.5 mph - N/A Rain Light Rain
9:15 PM 35.6 °F 31.8 °F 35.6 °F 100% 29.74 in 0.4 mi NW 4.5 mph - N/A Fog , Rain Light Rain
9:23 PM 35.6 °F 31.8 °F 35.6 °F 100% 29.77 in 0.5 mi NW 4.5 mph - N/A Fog , Rain Light Rain
9:45 PM 35.6 °F 31.8 °F 35.6 °F 100% 29.74 in 0.6 mi NW 4.5 mph - N/A Rain Light Rain
10:15 PM 35.6 °F 31.8 °F 35.6 °F 100% 29.74 in 0.7 mi NNW 4.5 mph - N/A Rain Light Rain
10:45 PM 35.6 °F - 35.6 °F 100% 29.74 in 0.7 mi North 2.2 mph - N/A Rain Light Rain
11:15 PM 35.6 °F - 35.6 °F 100% 29.74 in 0.7 mi North 2.2 mph - N/A Rain Light Rain
11:45 PM - - - N/A% - 1.9 mi North - - N/A   Overcast